ONEWEB-0092, 45437

Orbit data source: Space-Track

ONEWEB-0092, 45437 is a payload satellite owned by One Web (UK) in LEO that was launched on Sat, 21 Mar 2020 UTC via a SOYUZ-2-1B launch vehicle from the Tyuratam Missile And Space Complex (TTMTR). Payload-class satellites include a variety of spacecraft equipped with specific instruments for various scientific and technological missions. These include communications satellites like Starlink; space stations such as the ISS; scientific satellites like the Hubble; Earth observation satellites from companies like Planet Labs, Umbra, and HawkEye 360; GPS; miniature CubeSats for education and research; and military/defense satellites.

Loading next visibility...
Identifier
45437, 2020-020P
Orbit
LEO
Country
Flag of UKUK
Related business
Manufacturer
One Web
Mission
Operational Commercial Communications
Bus & Motor
ARROW, Unknown motor
Mass
148 kg wet, ~140 kg dry
Launch date (UTC)
2020-03-21 (6 years ago)
Launch vehicle
SOYUZ-2-1B
Launch site
Tyuratam Missile And Space Complex (TTMTR)
Object type
Payload
Rocket body
Debris
Shape & HBR
Trap Box + 2 Pan, 6.7 m
Radar Cross Section
3.464 m², Large (>1 m²)

Expand to show TLE details & history
Last TLE update: 12 hours ago

TLE from 12 hours ago
0 ONEWEB-0092
1 45437U 20020P   26035.03341893  .00000220  00000-0  58566-3 0  9991
2 45437  87.8819  47.5577 0002167  86.6603 273.4772 13.11413412285330
Epoch: 2026-02-04T00:48Z
TLE epoch observation values (Epoch: 2026-02-04T00:48:07.395Z)
Latitude
-0.00011°
Longitude
-98.67892°
Altitude
1,220.486 km
Speed
7.244 km/s
True Right ascension
03h 10m 13s
True Declination
0° 00' 00"
Sunlit
Object was in daylight at epoch
Visualization orbit readout
Latitude
Unknown
Longitude
Unknown
Altitude
Unknown
Speed
Unknown
Apparent Right ascension
Unknown
Apparent Declination
Unknown
Sunlit
N/A
Visualization observer readout
Local Sidereal Time
14:17:22
Azimuth
Unknown
Elevation
Unknown
Doppler factor
Unknown
Orbital elements
Apogee altitude
1,216.46 km
Perigee altitude
1,213.169 km
Semi-major axis
7,592.952 km
Eccentricity
0.00022
Inclination
87.8819°
RAAN
47.5577°
Arg. of periapsis
86.6603°
True anomaly
273.45241°
Mean anomaly
273.4772°
Eccentric anomaly
273.46481°
Mean motion
3.2804 °/min
Orbital period
109.74 mins
BSTAR
0.00058566
Loading maneuver chart data...
Computing Atmospheric mass density...
Loading historical data...
Loading historical data...
Loading historical data...
Loading historical data...
Loading historical data...
Loading historical data...
Loading historical data...

Documentation

Showing up to 5 results
|